DELTA 1 DEB

Satellite information

Favourite Embed

Satellite Type and Status

DEBRISIN ORBIT

Key statistics

Satellite DELTA 1 DEB at a glance.

Uptime

18041

Days in orbit

Revolutions

≈ 11.9

Per day

Orbit

MEO

Medium Earth Orbit

Inclination

100.7

Latest

Satellite identification and parameters

Extended collection of information and parameters for DELTA 1 DEB.

Object identification

Identified? True

Debris? True

Object name: DELTA 1 DEB

International designator: 1976-077EA

Object number (NORAD): 12647

Object ID (CCSDS): 12647

Country: UNITED STATES OF AMERICA (US)

Current information (Y/N): Y

RCS size: SMALL

Orbital parameters

Period: 121.343 minutes

Inclination: 100.67 deg

SMA: 8119.009 km

Apoapsis: 2057.455 km

Periapsis: 1424.293 km

RAAN: 99.2666 deg

Eccentricy: 0.03899257

Argument of periapsis: 190.9835 deg

Mean anomaly: 199.2309 deg

Mean motion: 11.86719914 rev/day

Mean motion (dot): 0.00000196 rev/day2

B* drag term: 0.0026887607 1/REarth

Two-line elements (TLE)

Creation date: Dec. 17, 2025, 11:34 a.m.

Reference frame: TEME

Reference center: EARTH

Epoch: Dec. 17, 2025, 5:43 a.m. UTC

TLE line 0: 0 DELTA 1 DEB

TLE line 1: 1 12647U 76077EA 25351.23825396 .00000196 00000-0 26888-2 0 9991

TLE line 2: 2 12647 100.6700 99.2666 0389926 190.9835 199.2309 11.86719914 66345

Live tracking on map

Real-time ground track for satellite DELTA 1 DEB.

In-orbit conjunctions

A list of the most updated potential collisions computed for object DELTA 1 DEB.

Target Orbit TCA Probability of collision Miss distance Type
COSMOS 1015 LEO 2024-08-19 00:23:39 0.0003739935 264.0 (m) PAYLOAD

Associated space launch

Meteorological satellite using radiometric imaging

DELTA 1 DEB was lifted into orbit during the mission ‘Delta 2310 | NOAA 5’, on board a Delta 2310 space rocket.

The launch took place on July 29, 1976, 5:07 p.m. from Space Launch Complex 2W.

For more information about the launch, click the button.

Launch to space Delta 2310 | NOAA 5
Delta 2310 | NOAA 5

Agency: N/A

Status: Launch Successful

Launch date: July 29, 1976, 5:07 p.m. UTC

Rocket: Delta 2310

Launch pad: Space Launch Complex 2W

Location: Vandenberg SFB, CA, USA

...

Latest news about this satellite

There are no fresh news available about this satellite. Check back as we update our databases every day.


Newsletter sign-up

Weekly statistics, charts and insights to help you stay on top of the space industry.